"Pseudo-MPEC" for P12bzLp

Created 2025 Jul 7 22:35:10 UT using Find_Orb

Click here for an explanation of pseudo-MPECs

 
 Astrometry: 
     P12bzLp* C2025 07 04.56569922 21 03.014-33 08 22.78   ~74KZ 21.15wXNEOCPF51
     P12bzLp  C2025 07 04.57542822 21 03.960-33 08 24.44   ~74KZ 21.41wXNEOCPF51
     P12bzLp  C2025 07 04.58517222 21 04.911-33 08 26.03   ~74KZ 21.37wXNEOCPF51
     P12bzLp 2C2025 07 05.55808422 22 45.287-33 11 07.97   ~76LZ 21.5 GWNEOCPT12
     P12bzLp 2C2025 07 05.55951622 22 45.419-33 11 08.17   ~76LZ 21.5 GWNEOCPT12

Station data:
(F51) Pan-STARRS 1, Haleakala  (N20.707234 W156.255910)  US/Hawaii.
   Observers J. Bulger, T. Lowe, A. Schultz, M. Willman. Measurers K.
   Chambers, S. Chastel, T. de Boer, L. Denneau, J. Fairlamb, H. Flewelling,
   M. Huber, C.-C. Lin, E. Magnier, Y. Ramanjooloo, R. Wainscoat, R. Weryk.
   1.8-m Ritchey-Chrétien + CCD.
(T12) Mauna Kea-UH/Tholen NEO Follow-Up (2.24-m)  (N19.822991 W155.469434)
   US/Hawaii.  Observer Y. Ramanjooloo. 2.24-m f/10.1 University of Hawaii
   reflector.

Orbital elements:  P12bzLp
   Perihelion 2025 Sep 18.80847 +/- 43.8 TT = 19:24:12 (JD 2460937.30847)
Epoch 2025 Jul  5.0 TT = JDT 2460861.5   Earth MOID: 0.0439   Ve: 0.0994
M 357.15165769 +/- 17               (J2000 ecliptic)             AutoNEOCP
n   0.03757287 +/- 0.103            Peri.   78.24925 +/- 110
a   8.82848989 +/- 16.1             Node   328.66584 +/- 27
e   0.9380257 +/- 0.222             Incl.   17.28119 +/- 2.5
P  26.23189                H 20.12  G  0.15   U 11.2  SR
q 0.54713911 +/- 0.314    Q 17.1098406 +/- 42.2
From 5 observations 2025 July 4-5 (23.9 hr); mean residual 0".10
Residuals in arcseconds: 
250704 F51  .21-  .02+    250704 F51  .23+  .01-    250705 T12  .05-  .02+    
250704 F51  .01-  .02-    250705 T12  .05+  .02-    

Ephemerides (geocentric):
Date (UTC) HH   RA             Dec           delta  r     elong  mag " sig PA
---- --------  ------------   ------------  ------ ------ -----  --- --------
2025 07 07 23  22 27 04.125   -33 17 56.06  .60142 1.5042 135.2 21.2  112  83
2025 07 08 00  22 27 08.786   -33 18 03.57  .60062 1.5036 135.2 21.2  115  83
2025 07 08 01  22 27 13.452   -33 18 11.09  .59981 1.5030 135.2 21.2  118  83
2025 07 08 02  22 27 18.125   -33 18 18.61  .59901 1.5024 135.2 21.2  122  83
2025 07 08 03  22 27 22.803   -33 18 26.15  .59821 1.5018 135.3 21.1  125  83
2025 07 08 04  22 27 27.489   -33 18 33.69  .59741 1.5011 135.3 21.1  129  83
2025 07 08 05  22 27 32.180   -33 18 41.24  .59660 1.5005 135.3 21.1  133  83
2025 07 08 06  22 27 36.877   -33 18 48.80  .59580 1.4999 135.3 21.1  136  83
2025 07 08 07  22 27 41.581   -33 18 56.37  .59500 1.4993 135.3 21.1  140  83
2025 07 08 08  22 27 46.292   -33 19 03.94  .59420 1.4987 135.3 21.1  144  83
2025 07 08 09  22 27 51.008   -33 19 11.52  .59340 1.4980 135.4 21.1  147  83
2025 07 08 10  22 27 55.731   -33 19 19.11  .59259 1.4974 135.4 21.1  151  83
2025 07 08 11  22 28 00.460   -33 19 26.71  .59179 1.4968 135.4 21.1  155  83
2025 07 08 12  22 28 05.196   -33 19 34.32  .59099 1.4962 135.4 21.1  159  83
2025 07 08 13  22 28 09.938   -33 19 41.93  .59019 1.4955 135.4 21.1  163  83
2025 07 08 14  22 28 14.687   -33 19 49.55  .58939 1.4949 135.4 21.1  167  83
2025 07 08 15  22 28 19.443   -33 19 57.18  .58859 1.4943 135.5 21.1  171  83
2025 07 08 16  22 28 24.204   -33 20 04.81  .58779 1.4937 135.5 21.1  175  84
2025 07 08 17  22 28 28.973   -33 20 12.46  .58699 1.4931 135.5 21.1  180  84
2025 07 08 18  22 28 33.748   -33 20 20.11  .58619 1.4924 135.5 21.1  184  84
2025 07 08 19  22 28 38.530   -33 20 27.77  .58539 1.4918 135.5 21.1  188  84
2025 07 08 20  22 28 43.318   -33 20 35.44  .58459 1.4912 135.5 21.1  193  84
2025 07 08 21  22 28 48.113   -33 20 43.11  .58379 1.4906 135.6 21.1  197  84
2025 07 08 22  22 28 52.915   -33 20 50.79  .58299 1.4900 135.6 21.1  201  84
2025 07 08 23  22 28 57.723   -33 20 58.48  .58219 1.4893 135.6 21.1  206  84
2025 07 09 00  22 29 02.539   -33 21 06.18  .58140 1.4887 135.6 21.1  210  84
2025 07 09 01  22 29 07.361   -33 21 13.88  .58060 1.4881 135.6 21.1  215  84
2025 07 09 02  22 29 12.190   -33 21 21.60  .57980 1.4875 135.6 21.1  220  84
2025 07 09 03  22 29 17.026   -33 21 29.32  .57900 1.4869 135.7 21.1  224  84
2025 07 09 04  22 29 21.869   -33 21 37.04  .57820 1.4862 135.7 21.1  229  84
2025 07 09 05  22 29 26.719   -33 21 44.78  .57741 1.4856 135.7 21.0  234  84
2025 07 09 06  22 29 31.576   -33 21 52.52  .57661 1.4850 135.7 21.0  239  84
2025 07 09 07  22 29 36.440   -33 22 00.27  .57581 1.4844 135.7 21.0  244  84
2025 07 09 08  22 29 41.311   -33 22 08.03  .57501 1.4837 135.7 21.0  249  84
2025 07 09 09  22 29 46.188   -33 22 15.79  .57422 1.4831 135.8 21.0  254  84
2025 07 09 10  22 29 51.074   -33 22 23.57  .57342 1.4825 135.8 21.0  259  84
2025 07 09 11  22 29 55.966   -33 22 31.34  .57262 1.4819 135.8 21.0  264  84
2025 07 09 12  22 30 00.865   -33 22 39.13  .57183 1.4813 135.8 21.0  269  84
2025 07 09 13  22 30 05.772   -33 22 46.93  .57103 1.4806 135.8 21.0  274  84
2025 07 09 14  22 30 10.686   -33 22 54.73  .57024 1.4800 135.8 21.0  280  84
2025 07 09 15  22 30 15.607   -33 23 02.54  .56944 1.4794 135.9 21.0  285  84
2025 07 09 16  22 30 20.535   -33 23 10.35  .56865 1.4788 135.9 21.0  290  84
2025 07 09 17  22 30 25.471   -33 23 18.18  .56785 1.4781 135.9 21.0  296  84
2025 07 09 18  22 30 30.414   -33 23 26.01  .56706 1.4775 135.9 21.0  301  84
2025 07 09 19  22 30 35.365   -33 23 33.84  .56626 1.4769 135.9 21.0  307  84
2025 07 09 20  22 30 40.323   -33 23 41.69  .56547 1.4763 135.9 21.0  312  84
2025 07 09 21  22 30 45.288   -33 23 49.54  .56467 1.4756 136.0 21.0  318  84
2025 07 09 22  22 30 50.261   -33 23 57.40  .56388 1.4750 136.0 21.0  324  84